This demonstration page uses our WeatherBlox Daily Observations layout. Learn more.

41.55636, -103.73856

Hourly Observations for May 11, 2019

Temp ( °F °C ) Dew Point ( °F °C ) Humidity (%) Winds ( mph kmh ) Pressure ( in mb ) Visibility ( mi km ) Precip ( " mm )
12:58 am 00:58 Mostly Cloudy 50 9.8 35 1.8 58 58 SW 10 17 29.96 1015 10 16.0934 0 0
1:58 am 01:58 Mostly Clear 45 7.2 37 2.5 72 72 SW 8 13 29.98 1015 10 16.0934 0 0
2:58 am 02:58 Clear 40 4.6 35 1.7 82 82 SSW 12 19 29.99 1016 10 16.0934 0 0
3:58 am 03:58 Clear 40 4.2 34 1.3 82 82 SW 13 20 29.99 1016 10 16.0934 0 0
4:58 am 04:58 Clear 40 4.4 35 1.5 82 82 SW 13 20 29.99 1016 10 16.0934 0 0
5:58 am 05:58 Clear 39 3.9 35 1.6 85 85 SW 16 26 29.96 1015 10 16.0934 0 0
7:58 am 07:58 Clear 37 2.9 34 0.9 87 87 WSW 10 17 29.94 1014 10 16.0934 0 0
8:58 am 08:58 Mostly Cloudy 37 2.8 31 -0.3 80 80 W 13 20 29.91 1013 10 16.0934 0 0
9:58 am 09:58 Clear 35 1.4 29 -1.7 80 80 WNW 13 20 29.91 1013 10 16.0934 0 0
10:58 am 10:58 Mostly Cloudy 35 1.4 29 -1.4 82 82 W 12 19 29.94 1014 10 16.0934 0 0
11:58 am 11:58 Sunny 34 1.2 29 -1.9 80 80 WNW 10 17 29.94 1014 10 16.0934 0 0
12:58 pm 12:58 Sunny 39 3.8 31 -0.4 74 74 WNW 5 7 29.92 1013 10 16.0934 0 0
1:58 pm 13:58 Partly Cloudy 45 7.4 33 0.5 62 62 NNW 16 26 29.93 1014 10 16.0934 0 0
2:58 pm 14:58 Mostly Cloudy 45 7 36 2.4 73 73 N 20 31 29.97 1015 10 16.0934 0 0
3:58 pm 15:58 Windy with Rain Showers Likely 41 5.2 37 2.7 84 84 N 20 31 30.01 1016 10 16.0934 0 0
4:58 pm 16:58 Windy with Rain Showers Likely 42 5.8 37 2.7 81 81 NNW 25 41 30.01 1016 10 16.0934 0 0
5:58 pm 17:58 Windy with Rain Showers Likely 44 6.7 34 0.9 67 67 NNW 25 41 30.02 1017 10 16.0934 0 0
6:58 pm 18:58 Windy with Rain Showers Likely 45 7.1 35 1.5 68 68 NW 23 37 29.99 1016 10 16.0934 0 0
7:58 pm 19:58 Mostly Cloudy 45 7.1 33 0.8 65 65 NW 22 35 29.98 1015 10 16.0934 0 0
8:58 pm 20:58 Mostly Cloudy 50 10.1 32 0.2 51 51 NNW 24 39 29.94 1014 10 16.0934 0 0
9:58 pm 21:58 Mostly Sunny 52 11.3 31 -0.4 45 45 NW 22 35 29.93 1014 10 16.0934 0 0
10:58 pm 22:58 Mostly Cloudy 54 12.4 28 -2.3 36 36 NNW 21 33 29.91 1013 10 16.0934 0 0

Powered by AerisWeather